Home > Weather > Dushanbe > Past weeks

Flag for Tajikistan Past Weather in Dushanbe, Tajikistan — Yesterday and Last 2 Weeks

Now
86 °F

Clear.


Feels Like: 84 °F
Forecast: 72 / 92 °F
Wind: 3 mph from East

Location: Dushanbe Airport

Current Time: Jul 27, 2016 at 8:46:12 AM

Latest Report: Jul 27, 2016 at 8:00 AM


Visibility: 4 mi

Pressure: 29.68 "Hg (27.02 "Hg at 832m altitude)

Humidity: 33%

Dew Point: 54 °F

Location of DushanbeLocation

Past Weather in Dushanbe — Graph

°F

Dushanbe Temperature Yesterday

Maximum temperature yesterday: 108 °F (at 3:30 PM)
Minimum temperature yesterday: 72 °F (at 5:00 AM)
Average temperature yesterday: 90 °F

High & Low Weather Summary for the Past Weeks

 TemperatureHumidityPressure
High108 °F (Jul 26, 3:30 PM)65% (Jul 16, 3:00 AM)29.92 "Hg (Jul 16, 3:00 AM)
Low64 °F (Jul 20, 5:30 AM)10% (Jul 20, 1:30 PM)29.62 "Hg (Jul 26, 5:00 PM)
Average85 °F34%29.75 "Hg
* Reported Jul 12 7:00 AM — Jul 27 7:30 AM, Dushanbe, Weather by CustomWeather, © 2016

Note: Actual official high and low records may vary slightly from our data, if they occured in-between our weather recording intervals... More about our weather records

Advertising

Dushanbe Weather History for the Previous 24 Hours

Scroll right to see more
 ConditionsComfort  
Time TempWeatherWind HumidityBarometerVisibility
7:30 AM
Wed, Jul 27
81 °FClear.1 mph45%29.68 "HgN/A
7:00 AM81 °FClear.No wind42%29.68 "HgN/A
6:30 AM77 °FClear.3 mph44%29.68 "HgN/A
6:00 AM72 °FClear.3 mph53%29.68 "HgN/A
5:30 AM77 °FClear.1 mph42%29.68 "HgN/A
5:00 AM75 °FClear.1 mph47%29.65 "HgN/A
4:30 AM75 °FClear.1 mph47%29.65 "HgN/A
4:00 AM77 °FClear.1 mph44%29.65 "HgN/A
3:30 AM79 °FClear.1 mph39%29.65 "HgN/A
3:00 AM75 °FClear.6 mph44%29.65 "HgN/A
2:30 AM81 °FClear.3 mph37%29.65 "HgN/A
2:00 AM77 °FClear.1 mph44%29.68 "HgN/A
1:30 AM81 °FClear.3 mph39%29.68 "HgN/A
1:00 AM79 °FClear.1 mph42%29.68 "HgN/A
12:30 AM81 °FClear.3 mph39%29.68 "HgN/A
12:00 AM81 °FClear.3 mph45%29.68 "HgN/A
11:30 PM
Tue, Jul 26
82 °FClear.1 mph40%29.68 "HgN/A
11:00 PM81 °FClear.No wind45%29.68 "HgN/A
10:30 PM84 °FClear.1 mph40%29.65 "HgN/A
10:00 PM84 °FClear.3 mph43%29.65 "Hg5 mi
9:30 PM86 °FClear.6 mph38%29.65 "Hg4 mi
9:00 PM90 °FClear.3 mph33%29.65 "Hg5 mi
8:30 PM90 °FClear.No wind33%29.65 "Hg4 mi
8:00 PM93 °FClear.No wind28%29.65 "Hg5 mi
7:30 PM93 °FClear.3 mph30%29.62 "Hg6 mi
7:00 PM99 °FClear.6 mph21%29.62 "HgN/A
6:30 PM100 °FClear.10 mph22%29.62 "HgN/A
6:00 PM102 °FClear.8 mph20%29.62 "HgN/A
5:30 PM104 °FPassing clouds.10 mph16%29.62 "HgN/A
5:00 PM106 °FPassing clouds.10 mph13%29.62 "HgN/A
4:30 PM106 °FClear.6 mph12%29.65 "HgN/A
4:00 PM106 °FClear.6 mph13%29.65 "HgN/A
3:30 PM108 °FPassing clouds.6 mph14%29.65 "HgN/A
3:00 PM106 °FPassing clouds.1 mph13%29.65 "HgN/A
2:30 PM106 °FClear.3 mph14%29.68 "HgN/A
2:00 PM106 °FClear.6 mph14%29.68 "HgN/A
1:30 PM106 °FPassing clouds.3 mph13%29.71 "HgN/A
1:00 PM104 °FPassing clouds.3 mph13%29.71 "HgN/A
12:30 PM104 °FPassing clouds.3 mph15%29.71 "HgN/A
12:00 PM102 °FClear.3 mph15%29.71 "HgN/A
11:30 AM102 °FClear.3 mph20%29.74 "HgN/A
11:00 AM100 °FClear.3 mph18%29.74 "HgN/A
10:30 AM99 °FClear.1 mph24%29.74 "HgN/A
10:00 AM95 °FClear.1 mph30%29.74 "HgN/A
9:30 AM90 °FClear.3 mph38%29.74 "Hg6 mi
9:00 AM88 °FClear.6 mph38%29.77 "HgN/A
8:30 AM90 °FClear.3 mph26%29.77 "HgN/A
8:00 AM84 °FClear.1 mph37%29.77 "Hg6 mi
Weather by CustomWeather, © 2016

See weather overviewHow to use our weather pages